Location: Holyhead Bay
(53.3667°N, 4.6667°W)
Time: 18:13:29
(UTC+00:00)

Cosmos 1610 Rocket - Pass Details

Date: 24 November 2020
Orbit: 952 x 1003 km, 82.9° (Epoch: 16 January)

Event Time Altitude Azimuth Distance (km) Brightness Sun altitude
Rises 17:17:47 0° 349° (N) 3,737 7.4 -9.7°
Reaches altitude 10° 17:20:21 10° 351° (N) 2,779 6.8 -10.1°
Maximum altitude 17:26:45 79° 79° (ENE) 1,015 4.5 -11.0°
Drops below altitude 10° 17:33:02 10° 166° (SSE) 2,728 6.9 -11.8°
Sets 17:35:31 0° 167° (SSE) 3,665 7.6 -12.2°
